Location: Beadle
(51.4667°N, 109.0000°W)
Time: 18:39:23
(UTC+00:00)

O/OREOS (USA 219) - Pass Details

Date: 25 June 2022
Orbit: 621 x 646 km, 72.0° (Epoch: 22 May)

Event Time Altitude Azimuth Distance (km) Brightness Sun altitude
Rises 08:17:57 0° 333° (NNW) 2,960 ? -14.0°
Reaches altitude 10° 08:20:16 10° 336° (NNW) 2,050 ? -13.9°
Maximum altitude 08:24:50 64° 58° (ENE) 719 ? -13.7°
Drops below altitude 10° 08:29:24 10° 141° (SE) 2,043 ? -13.6°
Enters shadow 08:30:25 - 143° (SE) 2,442 ? -13.5°
